Location: Terre Du Lac
(37.9120°N, 90.6250°W)
Time: 00:42:46
(UTC-05:00)

HST - Visible Passes

Search period start: 20 April 2014 00:00
Search period end: 30 April 2014 00:00
Orbit: 548 x 553 km, 28.5° (Epoch: 19 April)

Date Brightness Start Highest point End Pass type
(mag) Time Alt. Az. Time Alt. Az. Time Alt. Az.
20 Apr 2.7 21:39:38 10° SW 21:41:37 18° SSW 21:41:37 18° SSW visible
21 Apr 2.7 21:33:15 10° SW 21:35:31 17° SSW 21:35:31 17° SSW visible
22 Apr 2.8 21:26:59 10° SW 21:29:23 15° SSW 21:29:23 15° SSW visible
23 Apr 3.0 21:20:52 10° SW 21:22:50 13° SSW 21:23:14 13° S visible
24 Apr 3.2 21:15:17 10° SSW 21:16:11 11° SSW 21:17:05 10° S visible
